sat.trackr.live / text

‹ back to catalog

STARLINK-3899

NORAD 52457 · 2022-049G

PAYLOAD ACTIVE UNKNOWN

§ Identity

Operator
Country
US
Launch date
2022-05-06
Launch site
AFETR
Launch vehicle
Mass (kg)
RCS (m²)

Purposes: comms

External: N2YO · Heavens-Above · Gunter

§ Orbital elements

Epoch: 2026-05-25T04:49:09.560640Z

Period
95.44 min
Inclination
53.2123°
Eccentricity
0.0001352
Mean motion
15.08852516 rev/d
Perigee alt
538.8 km
Apogee alt
540.6 km
Semi-major
6,917.8 km
B*
-1.6019e-4
RAAN
85.6373°
Arg perigee
94.9943°
Mean anomaly
265.1203°
Rev number
22,366

§ Raw data

STARLINK-38991 52457U 22049G   26145.20080510 -.00002837  00000+0 -16019-3 0  99952 52457  53.2123  85.6373 0001352  94.9943 265.1203 15.08852516223661

JSON: /api/v1/satellites/52457 · /tle

For live sub-satellite position, see the globe view (requires WebGL).

§ Visibility from observer

Set your observer location to see the next 7 days of passes ≥ 10°. The values pass through the URL so the page stays shareable.

No JS? Fill the form by hand. The geolocation button needs JavaScript.